Weather History for Siloam Springs, AR

Change the Weather History Date:

Saturday, May 11, 2013

  Actual Average Record
Temperature  
Mean Temperature 60 °F -  
Max Temperature 73 °F 72 °F 86 °F (2005)
Min Temperature 46 °F 53 °F 41 °F (1997)
Degree Days  
Heating Degree Days 6    
Growing Degree Days 10 (Base 50)    
Moisture  
Dew Point 47 °F    
Average Humidity 66    
Maximum Humidity 88    
Minimum Humidity 39    
Precipitation  
Precipitation 0.00 in - - ()
Sea Level Pressure  
Sea Level Pressure 30.15 in    
Wind  
Wind Speed 5 mph (NNW)    
Max Wind Speed 17 mph    
Max Gust Speed 22 mph    
Visibility 8 miles    
Events      
Averages and records for this station are not official NWS values.
T = Trace of Precipitation, MM = Missing Value Source: NWS Daily Summary

Daily Weather History Graph

Daily Weather History Graph

Search for Another Location

Airport:

Trip Planner

Search our weather history database for the weather conditions in past years. The results will help you decide how hot, cold, wet, or windy it might be!

Date:

Astronomy

May. 11, 2013 Rise Set
Actual Time 6:14 AM CDT 8:14 PM CDT
Civil Twilight 5:46 AM CDT 8:42 PM CDT
Nautical Twilight 5:12 AM CDT 9:17 PM CDT
Astronomical Twilight 4:35 AM CDT 9:54 PM CDT
Moon 7:24 AM CDT (5/11) 9:54 PM CDT (5/11)
Length of Visible Light 14h 56m
Length of Day
13h 59m
Waxing Crescent, 3% of the Moon is Illuminated
May 11
Waxing Crescent
May 17
First Quarter
May 24
Full
May 31
Last Quarter
Jun 8
New

Hourly Weather History & Observations

Time (CDT) Temp. Dew Point Humidity Pressure Visibility Wind Dir Wind Speed Gust Speed Precip Events Conditions
12:15 AM 53.6 °F 48.2 °F 82% 30.09 in 10.0 mi Calm Calm - N/A   Clear
12:35 AM 53.6 °F 48.2 °F 82% 30.09 in 9.0 mi Calm Calm - N/A   Clear
12:55 AM 51.8 °F 48.2 °F 88% 30.09 in 8.0 mi Calm Calm - N/A   Clear
1:15 AM 51.8 °F 46.4 °F 82% 30.09 in 5.0 mi NNW 3.5 mph - N/A   Clear
1:35 AM 51.8 °F 46.4 °F 82% 30.11 in 5.0 mi NNW 4.6 mph - N/A   Clear
1:55 AM 51.8 °F 46.4 °F 82% 30.11 in 7.0 mi Calm Calm - N/A   Clear
2:15 AM 51.8 °F 48.2 °F 88% 30.11 in 6.0 mi Calm Calm - N/A   Clear
2:35 AM 51.8 °F 46.4 °F 82% 30.11 in 1.0 mi Calm Calm - N/A   Clear
2:55 AM 51.8 °F 46.4 °F 82% 30.11 in 2.5 mi Calm Calm - N/A   Clear
3:15 AM 51.8 °F 46.4 °F 82% 30.11 in 0.5 mi North 4.6 mph - N/A   Unknown
3:35 AM 51.8 °F 46.4 °F 82% 30.10 in 3.0 mi North 5.8 mph - N/A   Clear
3:55 AM 50.0 °F 46.4 °F 87% 30.09 in 4.0 mi North 4.6 mph - N/A   Clear
4:15 AM 50.0 °F 46.4 °F 87% 30.09 in 4.0 mi North 3.5 mph - N/A   Clear
4:35 AM 51.8 °F 46.4 °F 82% 30.09 in 5.0 mi Calm Calm - N/A   Clear
4:55 AM 50.0 °F 46.4 °F 87% 30.09 in 2.5 mi Calm Calm - N/A   Clear
5:15 AM 48.2 °F 44.6 °F 87% 30.09 in 0.8 mi Calm Calm - N/A   Unknown
5:35 AM 48.2 °F 44.6 °F 87% 30.10 in 1.5 mi Calm Calm - N/A   Clear
5:55 AM 48.2 °F 44.6 °F 87% 30.10 in 2.0 mi Calm Calm - N/A   Clear
6:15 AM 46.4 °F 42.8 °F 87% 30.11 in 0.2 mi Calm Calm - N/A   Unknown
6:35 AM 46.4 °F 42.8 °F 87% 30.11 in 0.2 mi Calm Calm - N/A   Overcast
6:55 AM 46.4 °F 42.8 °F 87% 30.12 in 0.2 mi Calm Calm - N/A   Overcast
7:15 AM 48.2 °F 44.6 °F 87% 30.13 in 0.2 mi Calm Calm - N/A   Overcast
7:35 AM 51.8 °F 46.4 °F 82% 30.13 in 3.0 mi Calm Calm - N/A   Scattered Clouds
7:55 AM 51.8 °F 48.2 °F 88% 30.14 in 3.0 mi NW 3.5 mph - N/A   Clear
8:15 AM 53.6 °F 50.0 °F 88% 30.15 in 5.0 mi NW 3.5 mph - N/A   Clear
8:35 AM 55.4 °F 51.8 °F 88% 30.15 in 9.0 mi NW 4.6 mph - N/A   Clear
8:55 AM 55.4 °F 51.8 °F 88% 30.16 in 10.0 mi NW 4.6 mph - N/A   Clear
9:15 AM 59.0 °F 51.8 °F 77% 30.16 in 10.0 mi WNW 3.5 mph - N/A   Clear
9:35 AM 60.8 °F 51.8 °F 72% 30.15 in 10.0 mi WNW 8.1 mph - N/A   Clear
9:55 AM 62.6 °F 51.8 °F 68% 30.15 in 10.0 mi NNW 6.9 mph - N/A   Clear
10:15 AM 64.4 °F 51.8 °F 64% 30.15 in 10.0 mi NW 8.1 mph - N/A   Clear
10:35 AM 64.4 °F 51.8 °F 64% 30.15 in 10.0 mi NNW 6.9 mph - N/A   Clear
10:55 AM 66.2 °F 50.0 °F 56% 30.15 in 10.0 mi NNW 8.1 mph - N/A   Clear
11:15 AM 66.2 °F 50.0 °F 56% 30.15 in 10.0 mi NNW 6.9 mph - N/A   Clear
11:35 AM 68.0 °F 51.8 °F 56% 30.16 in 10.0 mi NNW 6.9 mph - N/A   Clear
11:55 AM 68.0 °F 51.8 °F 56% 30.16 in 10.0 mi NW 5.8 mph - N/A   Partly Cloudy
12:15 PM 69.8 °F 51.8 °F 53% 30.16 in 10.0 mi NW 8.1 mph - N/A   Scattered Clouds
12:35 PM 69.8 °F 53.6 °F 56% 30.16 in 10.0 mi NW 13.8 mph - N/A   Partly Cloudy
12:55 PM 69.8 °F 51.8 °F 53% 30.16 in 10.0 mi North 11.5 mph - N/A   Partly Cloudy
1:15 PM 71.6 °F 53.6 °F 53% 30.16 in 10.0 mi NW 9.2 mph 17.3 mph N/A   Scattered Clouds
1:35 PM 71.6 °F 53.6 °F 53% 30.15 in 10.0 mi NNW 12.7 mph - N/A   Scattered Clouds
1:55 PM 71.6 °F 55.4 °F 57% 30.16 in 10.0 mi NNW 8.1 mph 16.1 mph N/A   Scattered Clouds
2:15 PM 73.4 °F 55.4 °F 53% 30.15 in 10.0 mi NNW 11.5 mph 17.3 mph N/A   Scattered Clouds
2:35 PM 73.4 °F 53.6 °F 50% 30.15 in 10.0 mi NNW 12.7 mph - N/A   Partly Cloudy
2:55 PM 73.4 °F 53.6 °F 50% 30.15 in 10.0 mi NW 12.7 mph 16.1 mph N/A   Mostly Cloudy
3:15 PM 71.6 °F 53.6 °F 53% 30.14 in 10.0 mi NW 16.1 mph 19.6 mph N/A   Mostly Cloudy
3:35 PM 71.6 °F 53.6 °F 53% 30.14 in 10.0 mi NW 13.8 mph 18.4 mph N/A   Mostly Cloudy
3:55 PM 71.6 °F 55.4 °F 57% 30.13 in 10.0 mi NW 13.8 mph - N/A   Scattered Clouds
4:15 PM 71.6 °F 55.4 °F 57% 30.13 in 10.0 mi NW 17.3 mph 21.9 mph N/A   Scattered Clouds
4:35 PM 71.6 °F 53.6 °F 53% 30.14 in 10.0 mi NNW 16.1 mph - N/A   Partly Cloudy
4:55 PM 69.8 °F 53.6 °F 56% 30.14 in 10.0 mi NNW 16.1 mph - N/A   Clear
5:15 PM 69.8 °F 51.8 °F 53% 30.14 in 10.0 mi NNW 16.1 mph - N/A   Clear
5:35 PM 69.8 °F 48.2 °F 46% 30.15 in 10.0 mi North 15.0 mph - N/A   Clear
5:55 PM 69.8 °F 48.2 °F 46% 30.15 in 10.0 mi NNW 17.3 mph - N/A   Clear
6:15 PM 68.0 °F 46.4 °F 46% 30.15 in 10.0 mi NNW 17.3 mph 20.7 mph N/A   Clear
6:35 PM 66.2 °F 44.6 °F 46% 30.15 in 10.0 mi North 15.0 mph 19.6 mph N/A   Clear
6:55 PM 66.2 °F 41.0 °F 40% 30.16 in 10.0 mi NNW 16.1 mph 20.7 mph N/A   Clear
7:15 PM 64.4 °F 39.2 °F 40% 30.16 in 10.0 mi NNW 13.8 mph - N/A   Clear
7:35 PM 62.6 °F 37.4 °F 39% 30.16 in 10.0 mi NNW 11.5 mph - N/A   Clear
7:55 PM 60.8 °F 39.2 °F 45% 30.17 in 10.0 mi NNW 9.2 mph - N/A   Clear
8:15 PM 57.2 °F 39.2 °F 51% 30.18 in 10.0 mi NNW 10.4 mph - N/A   Clear
8:35 PM 57.2 °F 39.2 °F 51% 30.19 in 10.0 mi NNW 10.4 mph - N/A   Clear
8:55 PM 55.4 °F 37.4 °F 51% 30.19 in 10.0 mi North 10.4 mph - N/A   Clear
9:15 PM 53.6 °F 37.4 °F 54% 30.20 in 10.0 mi North 9.2 mph - N/A   Clear
9:35 PM 51.8 °F 37.4 °F 58% 30.21 in 10.0 mi North 8.1 mph - N/A   Clear
9:55 PM 51.8 °F 37.4 °F 58% 30.22 in 10.0 mi NNW 6.9 mph - N/A   Clear
10:15 PM 51.8 °F 35.6 °F 54% 30.23 in 10.0 mi North 6.9 mph - N/A   Clear
10:35 PM 51.8 °F 35.6 °F 54% 30.23 in 10.0 mi North 6.9 mph - N/A   Clear
10:55 PM 51.8 °F 35.6 °F 54% 30.23 in 10.0 mi North 4.6 mph - N/A   Clear
11:15 PM 51.8 °F 35.6 °F 54% 30.24 in 10.0 mi NNW 5.8 mph - N/A   Clear
11:35 PM 51.8 °F 35.6 °F 54% 30.24 in 10.0 mi North 3.5 mph - N/A   Clear
11:55 PM 51.8 °F 35.6 °F 54% 30.24 in 10.0 mi Calm Calm - N/A   Clear